Location: Biltmore Gardens
(41.6070°N, 83.4666°W)
Time: 19:26:47
(UTC+00:00)

Altair - Visible Passes

Search period start: 19 April 2021 00:00
Search period end: 29 April 2021 00:00
Orbit: 1501 x 1683 km, 47.2° (Epoch: 19 April)

Date Brightness Start Highest point End Pass type
(mag) Time Alt. Az. Time Alt. Az. Time Alt. Az.
19 Apr 9.1 09:16:24 10° S 09:23:58 25° SE 09:31:21 10° ENE visible
20 Apr 9.2 08:51:43 10° S 08:58:54 23° SE 09:05:55 10° E visible
21 Apr 9.2 08:27:06 10° S 08:33:50 21° SE 08:40:25 10° E visible
22 Apr 9.3 08:02:48 10° SSE 08:08:46 18° SE 08:14:51 10° E visible
22 Apr 8.0 10:02:23 10° SW 10:12:09 61° SE 10:21:36 10° ENE visible
23 Apr 9.3 07:39:11 12° SSE 07:43:43 16° SE 07:49:11 10° E visible
23 Apr 8.0 09:37:18 10° SW 09:47:00 57° SE 09:56:23 10° ENE visible
24 Apr 9.3 07:15:29 12° SE 07:18:40 14° ESE 07:23:22 10° E visible
24 Apr 8.1 09:13:30 15° SSW 09:21:51 53° SE 09:31:11 10° ENE visible
25 Apr 9.3 06:51:44 12° SE 06:53:38 13° ESE 06:57:18 10° E visible
25 Apr 8.1 08:49:45 20° SSW 08:56:43 49° SE 09:05:58 10° ENE visible
26 Apr 9.4 06:27:55 11° SE 06:28:36 11° ESE 06:30:36 10° ESE visible
26 Apr 8.2 08:25:56 25° SSW 08:31:35 46° SE 08:40:43 10° ENE visible
27 Apr 8.2 08:02:03 29° S 08:06:27 42° SE 08:15:28 10° ENE visible
27 Apr 7.7 10:00:42 10° WSW 10:10:48 85° NNW 10:20:33 10° ENE visible
28 Apr 8.3 07:38:07 32° S 07:41:20 39° SE 07:50:12 10° ENE visible
28 Apr 7.7 09:36:07 12° WSW 09:45:34 89° NNW 09:55:22 10° ENE visible
